| time (UTC) | temp C | wind direction | speed KPH | gust KPH | rain 1hr cm | rain 24hr cm | rain mn cm | humidity % | barometer mb |
| 20260504175002 | 26 | 0.0 | 0.0 | 0.00 | 0.00 | 0.00 | 16 | 1011.8 | |
| 20260504174502 | 26 | 0.0 | 0.0 | 0.00 | 0.00 | 0.00 | 16 | 1011.8 | |
| 20260504174002 | 26 | 0.0 | 0.0 | 0.00 | 0.00 | 0.00 | 16 | 1011.8 | |
| 20260504173502 | 27 | 0.0 | 0.0 | 0.00 | 0.00 | 0.00 | 15 | 1011.7 | |
| 20260504173002 | 27 | 0.0 | 0.0 | 0.00 | 0.00 | 0.00 | 14 | 1011.6 | |
| 20260504172502 | 27 | 0.0 | 0.0 | 0.00 | 0.00 | 0.00 | 14 | 1011.7 | |
| 20260504172002 | 27 | 0.0 | 0.0 | 0.00 | 0.00 | 0.00 | 14 | 1011.6 | |
| 20260504171502 | 27 | 0.0 | 0.0 | 0.00 | 0.00 | 0.00 | 14 | 1011.7 | |
| 20260504171002 | 28 | 0.0 | 0.0 | 0.00 | 0.00 | 0.00 | 13 | 1011.6 | |
| 20260504170502 | 28 | 0.0 | 0.0 | 0.00 | 0.00 | 0.00 | 13 | 1011.7 | |
| 20260504151002 | 32 | 0.0 | 0.0 | 0.00 | 0.00 | 0.00 | 9 | 1011.8 | |
| 20260504150502 | 31 | 0.0 | 0.0 | 0.00 | 0.00 | 0.00 | 10 | 1011.8 | |
| 20260504141002 | 31 | 0.0 | 0.0 | 0.00 | 0.00 | 0.00 | 9 | 1012.3 | |
| 20260504140502 | 32 | 0.0 | 0.0 | 0.00 | 0.00 | 0.00 | 9 | 1012.3 | |
| 20260504110501 | 31 | 0.0 | 0.0 | 0.00 | 0.00 | 0.00 | 11 | 1014.4 | |
| 20260504082002 | 27 | 0.0 | 0.0 | 0.00 | 0.00 | 0.00 | 16 | 1016.3 | |
| 20260504081502 | 27 | 0.0 | 0.0 | 0.00 | 0.00 | 0.00 | 14 | 1016.2 | |
| 20260504081002 | 27 | 0.0 | 0.0 | 0.00 | 0.00 | 0.00 | 15 | 1016.3 | |
| 20260504080502 | 26 | 0.0 | 0.0 | 0.00 | 0.00 | 0.00 | 15 | 1016.4 | |
| 20260503230001 | 15 | 0.0 | 0.0 | 0.00 | 0.00 | 0.00 | 41 | 1016.4 | |
| 20260503225501 | 15 | 0.0 | 0.0 | 0.00 | 0.00 | 0.00 | 41 | 1016.4 | |
| 20260503225001 | 15 | 0.0 | 0.0 | 0.00 | 0.00 | 0.00 | 41 | 1016.4 | |
| 20260503224501 | 15 | 0.0 | 0.0 | 0.00 | 0.00 | 0.00 | 41 | 1016.4 | |
| 20260503224001 | 15 | 0.0 | 0.0 | 0.00 | 0.00 | 0.00 | 42 | 1016.3 | |
| 20260503223502 | 15 | 0.0 | 0.0 | 0.00 | 0.00 | 0.00 | 41 | 1016.3 | |
| 20260503223001 | 15 | 0.0 | 0.0 | 0.00 | 0.00 | 0.00 | 41 | 1016.3 | |
| 20260503222501 | 16 | 0.0 | 0.0 | 0.00 | 0.00 | 0.00 | 39 | 1016.2 | |
| 20260503222001 | 16 | 0.0 | 0.0 | 0.00 | 0.00 | 0.00 | 38 | 1016.3 | |
| 20260503221501 | 16 | 0.0 | 0.0 | 0.00 | 0.00 | 0.00 | 38 | 1016.4 | |
| 20260503221001 | 16 | 0.0 | 0.0 | 0.00 | 0.00 | 0.00 | 37 | 1016.3 | |
| 20260503220501 | 16 | 0.0 | 0.0 | 0.00 | 0.00 | 0.00 | 37 | 1016.4 | |
| 20260503220001 | 16 | 0.0 | 0.0 | 0.00 | 0.00 | 0.00 | 37 | 1016.3 | |
| 20260503215501 | 16 | 0.0 | 0.0 | 0.00 | 0.00 | 0.00 | 37 | 1016.3 | |
| 20260503215001 | 16 | 0.0 | 0.0 | 0.00 | 0.00 | 0.00 | 38 | 1016.3 | |
| 20260503214501 | 16 | 0.0 | 0.0 | 0.00 | 0.00 | 0.00 | 39 | 1016.3 | |
| 20260503214001 | 16 | 0.0 | 0.0 | 0.00 | 0.00 | 0.00 | 37 | 1016.2 | |
| 20260503213501 | 16 | 0.0 | 0.0 | 0.00 | 0.00 | 0.00 | 37 | 1016.1 | |
| 20260503213001 | 16 | 0.0 | 0.0 | 0.00 | 0.00 | 0.00 | 37 | 1016.2 | |
| 20260503212501 | 17 | 0.0 | 0.0 | 0.00 | 0.00 | 0.00 | 36 | 1016.1 | |
| 20260503212001 | 17 | 0.0 | 0.0 | 0.00 | 0.00 | 0.00 | 36 | 1016.2 | |
| 20260503211501 | 17 | 0.0 | 0.0 | 0.00 | 0.00 | 0.00 | 35 | 1016.1 | |
| 20260503211001 | 17 | 0.0 | 0.0 | 0.00 | 0.00 | 0.00 | 34 | 1016.2 | |
| 20260503210501 | 17 | 0.0 | 0.0 | 0.00 | 0.00 | 0.00 | 35 | 1016.2 | |
| 20260503210001 | 17 | 0.0 | 0.0 | 0.00 | 0.00 | 0.00 | 35 | 1016.1 | |
| 20260503205502 | 17 | 0.0 | 0.0 | 0.00 | 0.00 | 0.00 | 34 | 1016.0 | |
| 20260503205001 | 17 | 0.0 | 0.0 | 0.00 | 0.00 | 0.00 | 34 | 1016.1 | |
| 20260503204502 | 18 | 0.0 | 0.0 | 0.00 | 0.00 | 0.00 | 33 | 1016.0 | |
| 20260503204001 | 17 | 0.0 | 0.0 | 0.00 | 0.00 | 0.00 | 35 | 1016.0 | |
| 20260503203501 | 17 | 0.0 | 0.0 | 0.00 | 0.00 | 0.00 | 34 | 1016.1 | |
| 20260503203001 | 17 | 0.0 | 0.0 | 0.00 | 0.00 | 0.00 | 35 | 1016.1 | |
| 20260503202501 | 18 | 0.0 | 0.0 | 0.00 | 0.00 | 0.00 | 35 | 1016.0 | |
| 20260503202001 | 17 | 0.0 | 0.0 | 0.00 | 0.00 | 0.00 | 36 | 1016.0 | |
| 20260503201501 | 18 | 0.0 | 0.0 | 0.00 | 0.00 | 0.00 | 36 | 1016.0 | |
| 20260503201001 | 18 | 0.0 | 0.0 | 0.00 | 0.00 | 0.00 | 34 | 1016.0 | |
| 20260503200501 | 18 | 0.0 | 0.0 | 0.00 | 0.00 | 0.00 | 35 | 1016.0 | |
| 20260503200001 | 18 | 0.0 | 0.0 | 0.00 | 0.00 | 0.00 | 34 | 1015.9 | |
| 20260503195501 | 18 | 0.0 | 0.0 | 0.00 | 0.00 | 0.00 | 35 | 1016.0 | |
| 20260503195001 | 18 | 0.0 | 0.0 | 0.00 | 0.00 | 0.00 | 34 | 1016.0 | |
| 20260503194501 | 18 | 0.0 | 0.0 | 0.00 | 0.00 | 0.00 | 34 | 1016.0 | |
| 20260503194001 | 18 | 0.0 | 0.0 | 0.00 | 0.00 | 0.00 | 33 | 1015.9 | |
| 20260503193501 | 18 | 0.0 | 0.0 | 0.00 | 0.00 | 0.00 | 34 | 1016.0 | |
| 20260503193001 | 18 | 0.0 | 0.0 | 0.00 | 0.00 | 0.00 | 32 | 1016.0 | |
| 20260503192501 | 19 | 0.0 | 0.0 | 0.00 | 0.00 | 0.00 | 32 | 1016.0 | |
| 20260503192001 | 19 | 0.0 | 0.0 | 0.00 | 0.00 | 0.00 | 32 | 1015.9 | |
| 20260503191501 | 19 | 0.0 | 0.0 | 0.00 | 0.00 | 0.00 | 31 | 1015.9 | |
| 20260503191001 | 20 | 0.0 | 0.0 | 0.00 | 0.00 | 0.00 | 31 | 1015.8 | |
| 20260503190501 | 19 | 0.0 | 0.0 | 0.00 | 0.00 | 0.00 | 31 | 1015.8 | |
| 20260503190001 | 20 | 0.0 | 0.0 | 0.00 | 0.00 | 0.00 | 31 | 1015.8 | |
| 20260503185501 | 20 | 0.0 | 0.0 | 0.00 | 0.00 | 0.00 | 29 | 1015.7 | |
| 20260503185001 | 20 | 0.0 | 0.0 | 0.00 | 0.00 | 0.00 | 29 | 1015.6 | |
| 20260503184501 | 20 | 0.0 | 0.0 | 0.00 | 0.00 | 0.00 | 29 | 1015.6 | |
| 20260503181001 | 22 | 0.0 | 0.0 | 0.00 | 0.00 | 0.00 | 24 | 1015.2 | |
| 20260503180501 | 22 | 0.0 | 0.0 | 0.00 | 0.00 | 0.00 | 23 | 1015.2 | |
| 20260503180001 | 22 | 0.0 | 0.0 | 0.00 | 0.00 | 0.00 | 23 | 1015.1 | |
| 20260503175501 | 23 | 0.0 | 0.0 | 0.00 | 0.00 | 0.00 | 22 | 1015.1 |